Overview Statistics Trail Chart Weather Telemetry Raw packets
 

This is the latest recevied weather packets stored in our database for station/object 4S6DRJ-13. If no packets are shown the sender has not sent any weather packets the latest 10 day(s).

<< 71 72 73 74 75 76 77 >>
Time Temp. Humidity Pressure Rain* Wind** Luminosity Snow
1788344824 30° C 75% 1007.5 hPa 0 mm 0.45 m/s, 299° 328 W/m² -
1788344763 30° C 75% 1007.4 hPa 0 mm 0.45 m/s, 260° 348 W/m² -
1788344703 30° C 75% 1007.5 hPa 0 mm 0.45 m/s, 327° 461 W/m² -
1788344641 30° C 75% 1007.4 hPa 0 mm 1.79 m/s, 302° 356 W/m² -
1788344580 30° C 75% 1007.5 hPa 0 mm 1.34 m/s, 273° 638 W/m² -
1788344519 29.44° C 76% 1007.5 hPa 0 mm 0 m/s 446 W/m² -
1788344458 29.44° C 76% 1007.5 hPa 0 mm 1.34 m/s, 241° 600 W/m² -
1788344397 29.44° C 76% 1007.6 hPa 0 mm 1.34 m/s, 233° 579 W/m² -
1788344336 29.44° C 78% 1007.5 hPa 0 mm 0.89 m/s, 293° 442 W/m² -
1788344275 28.89° C 78% 1007.5 hPa 0 mm 0 m/s 492 W/m² -
1788344214 28.89° C 79% 1007.4 hPa 0 mm 0.89 m/s, 200° 786 W/m² -
1788344153 28.33° C 79% 1007.4 hPa 0 mm 0.89 m/s, 277° 501 W/m² -
1788344092 28.33° C 80% 1007.5 hPa 0 mm 0.45 m/s, 243° 585 W/m² -
1788344031 28.33° C 80% 1007.5 hPa 0 mm 0.89 m/s, 301° 378 W/m² -
1788343970 28.33° C 80% 1007.7 hPa 0 mm 0.89 m/s, 226° 373 W/m² -
1788343909 28.33° C 81% 1007.8 hPa 0 mm 0.45 m/s, 236° 407 W/m² -
1788343848 28.33° C 81% 1007.6 hPa 0 mm 1.79 m/s, 247° 336 W/m² -
1788343787 28.33° C 81% 1007.7 hPa 0 mm 0.45 m/s, 219° 313 W/m² -
1788343726 28.33° C 82% 1007.7 hPa 0 mm 1.79 m/s, 287° 289 W/m² -
1788343666 28.33° C 82% 1007.6 hPa 0 mm 1.34 m/s, 323° 273 W/m² -
1788343604 28.33° C 82% 1007.7 hPa 0 mm 1.34 m/s, 291° 259 W/m² -
1788343543 28.33° C 82% 1007.7 hPa 0 mm 0.45 m/s, 253° 244 W/m² -
1788343482 28.33° C 81% 1007.8 hPa 0 mm 1.79 m/s, 252° 226 W/m² -
1788343421 28.33° C 81% 1007.7 hPa 0 mm 0.45 m/s, 65° 207 W/m² -
1788343360 28.33° C 81% 1007.6 hPa 0 mm 1.79 m/s, 186° 189 W/m² -

* Rain latest hour (hover to see other rain measurements)
** Current wind speed in m/s (hover to see current wind gust speed)